WetterOnline ( https://www.wetteronline.de )

Wetter aktuell Storebro

Aktuelles Wetter: Hultsfred Swedish Air Force (112m)

6-stündlich | Neueste Meldungen
Ortszeit Temperatur Wetter
Di, 29.09. 14:00 16.2° C leicht bewölkt
Di, 29.09. 8:00 6.6° C Nebel
Di, 29.09. 2:00 11.9° C wolkenlos
Mo, 28.09. 20:00 13.3° C wolkenlos
Mo, 28.09. 14:00 15.4° C leichte Schauer
Mo, 28.09. 8:00 13.7° C wolkenlos
Mo, 28.09. 2:00 12.9° C wolkenlos
So, 27.09. 20:00 14.8° C wolkenlos
Ortszeit Temperatur Wetter
Di, 29.09. 19:00 10.9° C wolkenlos
Di, 29.09. 18:00 14.1° C leicht bewölkt
Di, 29.09. 17:00 15.4° C fast wolkenlos
Di, 29.09. 16:00 16.6° C bewölkt
Di, 29.09. 15:00 16.2° C leicht bewölkt
Di, 29.09. 14:00 16.2° C leicht bewölkt
Ortszeit Relative Feuchte Sichtweite
Di, 29.09. 14:00 61% 21 km
Di, 29.09. 8:00 99% 100 m
Di, 29.09. 2:00 95% 16 km
Mo, 28.09. 20:00 96% 18 km
Mo, 28.09. 14:00 97% 4.7 km
Mo, 28.09. 8:00 96% 8 km
Mo, 28.09. 2:00 94% 13 km
So, 27.09. 20:00 87% 14 km
Ortszeit Relative Feuchte Sichtweite
Di, 29.09. 19:00 91% 14 km
Di, 29.09. 18:00 81% 17 km
Di, 29.09. 17:00 72% 19 km
Di, 29.09. 16:00 61% 19 km
Di, 29.09. 15:00 62% 17 km
Di, 29.09. 14:00 61% 21 km
Ortszeit Niederschlagsmenge Niederschlagsart
Di, 29.09. 14:00 0.0 l/m2 in 1 Std. -
Di, 29.09. 8:00 0.0 l/m2 in 12 Std. -
Di, 29.09. 2:00 keine Meldung -
Mo, 28.09. 20:00 0.2 l/m2 in 12 Std. Schauer
Mo, 28.09. 14:00 keine Meldung -
Mo, 28.09. 8:00 0.0 l/m2 in 12 Std. -
Mo, 28.09. 2:00 keine Meldung -
So, 27.09. 20:00 0.0 l/m2 in 12 Std. -
Ortszeit Niederschlagsmenge Niederschlagsart
Di, 29.09. 19:00 0.0 l/m2 in 1 Std. -
Di, 29.09. 18:00 0.0 l/m2 in 1 Std. -
Di, 29.09. 17:00 0.0 l/m2 in 1 Std. -
Di, 29.09. 16:00 0.0 l/m2 in 1 Std. -
Di, 29.09. 15:00 0.0 l/m2 in 1 Std. -
Di, 29.09. 14:00 0.0 l/m2 in 1 Std. -
Ortszeit Stärke Spitze Richtung
km/h Bft. km/h Grad Sektor
Di, 29.09. 14:00 4 1 14 250° W
Di, 29.09. 8:00 0 0 4 - -
Di, 29.09. 2:00 4 1 - 190° S
Mo, 28.09. 20:00 4 1 7 40° NO
Mo, 28.09. 14:00 7 2 - 110° O
Mo, 28.09. 8:00 9 2 - 30° NO
Mo, 28.09. 2:00 7 2 - 30° NO
So, 27.09. 20:00 14 3 29 20° N
Ortszeit Stärke Spitze Richtung
km/h Bft. km/h Grad Sektor
Di, 29.09. 19:00 2 1 4 30° NO
Di, 29.09. 18:00 4 1 7 170° S
Di, 29.09. 17:00 4 1 14 110° O
Di, 29.09. 16:00 7 2 14 170° S
Di, 29.09. 15:00 7 2 13 120° SO
Di, 29.09. 14:00 4 1 14 250° W
Ortszeit Untergrenze Bedeckung Gattung
total tief tief mittel hoch
Di, 29.09. 14:00 1080 m 4/8 2/8 - - -
Di, 29.09. 8:00 - - - - - -
Di, 29.09. 2:00 - 0/8 0/8 - - -
Mo, 28.09. 20:00 - 0/8 0/8 - - -
Mo, 28.09. 14:00 - 0/8 0/8 - - -
Mo, 28.09. 8:00 - 0/8 0/8 - - -
Mo, 28.09. 2:00 - 0/8 0/8 - - -
So, 27.09. 20:00 - 0/8 0/8 - - -
Ortszeit Bedeckungsgrad in Achtel und Wolkenuntergrenze
Di, 29.09. 19:00 keine Wolken
Di, 29.09. 18:00 4(1290m)
Di, 29.09. 17:00 1(1350m)
Di, 29.09. 16:00 7(1200m)
Di, 29.09. 15:00 3
Di, 29.09. 14:00 2(1080m)
Ortszeit Luftdruck NN (hPa) Tendenz (hPa in 3 Std.)
Di, 29.09. 14:00 1018 - 0,3
Di, 29.09. 8:00 1018 + 0,9
Di, 29.09. 2:00 1016 + 0,3
Mo, 28.09. 20:00 1015 + 1,3
Mo, 28.09. 14:00 1013 + 0,1
Mo, 28.09. 8:00 1013 + 0,7
Mo, 28.09. 2:00 1012 - 0,1
So, 27.09. 20:00 1011 + 1,6
Ortszeit Luftdruck NN (hPa) Tendenz (hPa in 3 Std.)
Di, 29.09. 19:00 1018 + 0,3
Di, 29.09. 18:00 1018 - 0,2
Di, 29.09. 17:00 1018 - 0,4
Di, 29.09. 16:00 1018 - 0,4
Di, 29.09. 15:00 1018 - 0,4
Di, 29.09. 14:00 1018 - 0,3
Ortszeit Schneehöhe (cm)
Di, 29.09. 14:00 -
Di, 29.09. 8:00 -
Di, 29.09. 2:00 -
Mo, 28.09. 20:00 -
Mo, 28.09. 14:00 -
Mo, 28.09. 8:00 -
Mo, 28.09. 2:00 -
So, 27.09. 20:00 -
Ortszeit Schneehöhe (cm)
Di, 29.09. 19:00 -
Di, 29.09. 18:00 -
Di, 29.09. 17:00 -
Di, 29.09. 16:00 -
Di, 29.09. 15:00 -
Di, 29.09. 14:00 -
Link zu dieser Seite / Seite empfehlen

Das Wetter in ...